Chatham, MA

6:49 PM EST on December 15, 2019 (GMT -0500)
Chatham Municipal

Weather History for KCQX - October, 2019

Change the Weather History Date:

Wednesday, October 30, 2019

  Actual Average Record
Temperature  
Mean Temperature 58 °F -  
Max Temperature 63 °F 54 °F 66 °F (2012)
Min Temperature 53 °F 42 °F 34 °F (2008)
Degree Days  
Heating Degree Days 8    
Growing Degree Days 8 (Base 50)    
Moisture  
Dew Point 56 °F    
Average Humidity 94    
Maximum Humidity 100    
Minimum Humidity 83    
Precipitation  
Precipitation 0.08 in - - ()
Sea Level Pressure  
Sea Level Pressure 30.29 in    
Wind  
Wind Speed 5 mph (SE)    
Max Wind Speed 10 mph    
Max Gust Speed 18 mph    
Visibility 8 miles    
Events Rain    
Averages and records for this station are not official NWS values.
T = Trace of Precipitation, MM = Missing Value Source: NWS Daily Summary

Daily Weather History Graph

Daily Weather History Graph

Search for Another Location

Airport or City:

Astronomy

Oct. 30, 2019 Rise Set
Actual Time 7:09 AM EDT 5:37 PM EDT
Civil Twilight 6:40 AM EDT 6:06 PM EDT
Nautical Twilight 6:07 AM EDT 6:38 PM EDT
Astronomical Twilight 5:35 AM EDT 7:11 PM EDT
Moon 9:50 AM EDT (10/30) 7:40 PM EDT (10/30)
Length of Visible Light 11h 25m
Length of Day
10h 28m
Waxing Crescent, 8% of the Moon is Illuminated
Oct 30
Waxing Crescent
Nov 4
First Quarter
Nov 12
Full
Nov 19
Last Quarter
Nov 26
New

Hourly Weather History & Observations

Time (EDT) Temp. Dew Point Humidity Pressure Visibility Wind Dir Wind Speed Gust Speed Precip Events Conditions
12:32 AM 55.0 °F 53.1 °F 93% 30.33 in 10.0 mi ESE 3.5 mph - N/A   Overcast
12:52 AM 54.0 °F 53.1 °F 97% 30.33 in 10.0 mi East 3.5 mph - N/A   Mostly Cloudy
1:52 AM 53.1 °F 52.0 °F 96% 30.34 in 10.0 mi Calm Calm - N/A   Scattered Clouds
2:52 AM 53.1 °F 52.0 °F 96% 30.33 in 10.0 mi Calm Calm - N/A   Mostly Cloudy
3:52 AM 54.0 °F 53.1 °F 97% 30.32 in 10.0 mi Calm Calm - N/A   Overcast
4:52 AM 54.0 °F 53.1 °F 97% 30.33 in 10.0 mi Calm Calm - N/A   Mostly Cloudy
5:52 AM 55.0 °F 54.0 °F 96% 30.32 in 10.0 mi ENE 4.6 mph - N/A   Overcast
6:52 AM 54.0 °F 53.1 °F 97% 30.33 in 10.0 mi ENE 3.5 mph - N/A   Overcast
7:52 AM 55.0 °F 54.0 °F 96% 30.34 in 10.0 mi ESE 4.6 mph - N/A   Overcast
8:52 AM 57.0 °F 55.9 °F 96% 30.35 in 10.0 mi SSE 4.6 mph - N/A   Overcast
9:52 AM 61.0 °F 57.0 °F 87% 30.34 in 10.0 mi Variable 5.8 mph - N/A   Mostly Cloudy
10:52 AM 61.0 °F 55.9 °F 83% 30.34 in 10.0 mi South 6.9 mph - N/A   Overcast
11:01 AM 61.0 °F 55.9 °F 83% 30.33 in 10.0 mi Variable 5.8 mph - N/A   Overcast
11:24 AM 61.0 °F 57.0 °F 87% 30.34 in 10.0 mi SSE 4.6 mph - N/A   Overcast
11:52 AM 61.0 °F 57.0 °F 87% 30.34 in 10.0 mi South 4.6 mph - N/A   Overcast
12:52 PM 62.1 °F 57.9 °F 86% 30.31 in 10.0 mi Variable 5.8 mph - N/A   Mostly Cloudy
1:30 PM 61.0 °F 57.0 °F 87% 30.30 in 10.0 mi South 9.2 mph - N/A   Overcast
1:39 PM 60.1 °F 57.0 °F 90% 30.30 in 10.0 mi South 10.4 mph 18.4 mph N/A   Overcast
1:52 PM 60.1 °F 57.0 °F 90% 30.30 in 6.0 mi SSE 9.2 mph 18.4 mph N/A   Overcast
2:03 PM 60.1 °F 57.0 °F 90% 30.29 in 7.0 mi South 10.4 mph 16.1 mph N/A   Overcast
2:39 PM 59.0 °F 57.0 °F 93% 30.27 in 2.0 mi SSE 8.1 mph - 0.00 in Rain Light Rain
2:50 PM 57.2 °F 57.2 °F 100% 30.27 in 2.5 mi Variable 6.9 mph - 0.00 in Rain Light Rain
2:52 PM 57.9 °F 57.0 °F 97% 30.28 in 2.5 mi SSE 6.9 mph - 0.00 in Rain Light Rain
3:14 PM 57.9 °F 57.0 °F 97% 30.28 in 3.0 mi SSE 8.1 mph - 0.01 in Rain Light Rain
3:35 PM 57.9 °F 57.0 °F 97% 30.27 in 10.0 mi SE 6.9 mph - 0.01 in   Overcast
3:52 PM 57.9 °F 57.0 °F 97% 30.27 in 10.0 mi SSE 5.8 mph - 0.01 in   Overcast
4:52 PM 59.0 °F 55.9 °F 90% 30.27 in 10.0 mi ESE 8.1 mph - 0.00 in Rain Light Rain
5:07 PM 57.9 °F 57.0 °F 97% 30.26 in 1.8 mi ESE 6.9 mph - 0.01 in Rain Light Rain
5:15 PM 57.9 °F 57.0 °F 97% 30.26 in 3.0 mi ESE 8.1 mph - 0.01 in Rain Light Rain
5:52 PM 57.9 °F 57.0 °F 97% 30.26 in 10.0 mi East 6.9 mph - 0.01 in   Overcast
6:36 PM 57.9 °F 55.9 °F 93% 30.25 in 5.0 mi ESE 6.9 mph - 0.00 in Rain Light Rain
6:52 PM 57.9 °F 55.9 °F 93% 30.25 in 8.0 mi East 8.1 mph - 0.01 in Rain Light Rain
7:02 PM 57.9 °F 55.9 °F 93% 30.25 in 9.0 mi ESE 6.9 mph - 0.00 in Rain Light Rain
7:52 PM 57.9 °F 57.0 °F 97% 30.24 in 10.0 mi SE 8.1 mph - 0.00 in   Overcast
8:27 PM 57.9 °F 57.9 °F 100% 30.23 in 6.0 mi ESE 9.2 mph - 0.01 in Rain Light Rain
8:52 PM 59.0 °F 59.0 °F 100% 30.23 in 3.0 mi SSE 8.1 mph - 0.03 in Rain Light Rain
9:17 PM 59.0 °F 59.0 °F 100% 30.22 in 3.0 mi SE 9.2 mph - 0.02 in Rain Light Rain
9:52 PM 60.1 °F 59.0 °F 96% 30.21 in 9.0 mi SSE 8.1 mph - 0.02 in   Overcast
10:52 PM 60.1 °F 59.0 °F 96% 30.19 in 8.0 mi SSE 6.9 mph - 0.00 in   Overcast
11:52 PM 60.1 °F 60.1 °F 100% 30.17 in 3.0 mi South 6.9 mph 17.3 mph 0.00 in Rain Light Rain